Home   Weather   Umm al-Quwain   Past weeks
Flag for United Arab Emirates

Past Weather in Umm al-Quwain, Umm al-Quwain, United Arab Emirates — Yesterday and Last 2 Weeks

Now
86 °F

Clear.


Feels Like: 95 °F
Forecast: 90 / 77 °F
Wind: 3 mph from North

Location: Sharjah International Airport

Current Time: Oct 19, 2019 at 9:39:09 pm

Latest Report: Oct 19, 2019 at 9:00 pm


Visibility: 10 mi

Pressure: 29.92 "Hg

Humidity: 70%

Dew Point: 75 °F

Location of Umm al-QuwainLocation

Past Weather in Umm al-Quwain — Graph

°F

Umm al-Quwain Temperature Yesterday

Maximum temperature yesterday: 99 °F (at 12:00 pm)
Minimum temperature yesterday: 75 °F (at 6:00 am)
Average temperature yesterday: 85 °F

High & Low Weather Summary for the Past Weeks

 TemperatureHumidityPressure
High104 °F (Oct 12, 1:00 pm)100% (Oct 19, 5:00 am)30.01 "Hg (Oct 19, 5:00 am)
Low72 °F (Oct 17, 6:00 am)14% (Oct 12, 12:00 pm)29.68 "Hg (Oct 5, 3:00 am)
Average87 °F63%29.87 "Hg
* Reported Oct 4 8:00 pm — Oct 19 8:00 pm, Umm al-Quwain. Weather by CustomWeather, © 2019

Note: Actual official high and low records may vary slightly from our data, if they occured in-between our weather recording intervals... More about our weather records

Advertising

Umm al-Quwain Weather History for the Previous 24 Hours

Scroll right to see more
 ConditionsComfort  
Time TempWeatherWind HumidityBarometerVisibility
8:00 pm
Sat, Oct 19
88 °FClear.5 mph66%29.92 "Hg10 mi
7:00 pm88 °FClear.8 mph70%29.89 "Hg10 mi
6:00 pm90 °FClear.10 mph52%29.89 "Hg10 mi
5:00 pm91 °FSunny.12 mph41%29.89 "Hg10 mi
4:00 pm93 °FSunny.12 mph41%29.86 "Hg10 mi
3:00 pm95 °FSunny.12 mph39%29.86 "Hg10 mi
2:00 pm97 °FPassing clouds.10 mph39%29.86 "HgN/A
1:00 pm100 °FPassing clouds.5 mph21%29.89 "HgN/A
12:00 pm97 °FSunny.5 mph19%29.92 "Hg10 mi
11:00 am93 °FPassing clouds.9 mph30%29.95 "HgN/A
10:00 am90 °FClear.5 mph49%29.98 "Hg5 mi
9:00 am79 °FFog.3 mph100%29.98 "Hg1 mi
8:30 am79 °FFog.2 mph100%29.98 "Hg0 mi
8:00 am79 °FFog.6 mph100%29.95 "Hg0 mi
7:00 am79 °FFog.7 mph100%29.95 "Hg1 mi
6:00 am77 °FFog.6 mph100%29.89 "Hg0 mi
5:00 am79 °FFog.5 mph100%29.89 "Hg0 mi
4:00 am77 °FFog.3 mph94%29.86 "Hg1 mi
3:00 am77 °FFog.2 mph94%29.86 "Hg1 mi
2:00 am79 °FFog.5 mph94%29.86 "Hg1 mi
1:00 am81 °FHaze.5 mph89%29.86 "Hg1 mi
12:00 am81 °FHaze.3 mph89%29.89 "Hg1 mi
11:00 pm
Fri, Oct 18
82 °FHaze.3 mph84%29.89 "Hg1 mi
10:00 pm82 °FHaze.1 mph84%29.89 "Hg2 mi
9:00 pm84 °FHaze.2 mph79%29.89 "Hg2 mi
Weather by CustomWeather, © 2019

See weather overview